Location: Newark
(42.8481°N, 0.4872°E)
Time: 17:39:41
(UTC+00:00)

Vanguard 3 - Pass Details

Date: 30 October 2020
Orbit: 508 x 3262 km, 33.3° (Epoch: 28 November)

Event Time Altitude Azimuth Distance (km) Brightness Sun altitude
Rises 02:15:54 0° 190° (S) 5,418 - -46.1°
Reaches altitude 10° 02:20:21 10° 176° (S) 4,856 - -45.3°
Exits shadow 02:22:56 15° 166° (SSE) 4,659 10.8 -44.9°
Maximum altitude 02:30:26 22° 133° (SE) 4,681 11.0 -43.7°
Drops below altitude 10° 02:42:52 10° 92° (E) 6,146 12.2 -41.6°
Sets 02:49:30 0° 80° (E) 7,233 12.8 -40.5°
